| time (UTC) | temp F | wind direction | speed MPH | gust MPH | rain 1hr in | rain 24hr in | rain mn in | humidity % | barometer mb |
| 20260905193633 | 87 | 205 | 0.0 | 0.0 | 0.00 | 0.00 | 0.00 | 37 | 1014.1 |
| 20260905193131 | 86 | 205 | 0.0 | 0.0 | 0.00 | 0.00 | 0.00 | 38 | 1014.1 |
| 20260905192632 | 86 | 205 | 0.0 | 0.0 | 0.00 | 0.00 | 0.00 | 35 | 1014.1 |
| 20260905192133 | 86 | 205 | 0.0 | 0.0 | 0.00 | 0.00 | 0.00 | 35 | 1014.2 |
| 20260905191924 | 86 | 205 | 0.0 | 0.0 | 0.00 | 0.00 | 0.00 | 36 | 1014.3 |
| 20260905191133 | 85 | 205 | 0.0 | 0.0 | 0.00 | 0.00 | 0.00 | 37 | 1014.4 |
| 20260905190634 | 85 | 205 | 0.0 | 0.0 | 0.00 | 0.00 | 0.00 | 39 | 1014.5 |
| 20260905190133 | 84 | 205 | 0.0 | 0.0 | 0.00 | 0.00 | 0.00 | 38 | 1014.5 |
| 20260905185920 | 84 | 205 | 0.0 | 0.0 | 0.00 | 0.00 | 0.00 | 37 | 1014.4 |
| 20260905185132 | 84 | 205 | 0.0 | 0.0 | 0.00 | 0.00 | 0.00 | 37 | 1014.5 |
| 20260905184628 | 83 | 205 | 0.0 | 0.0 | 0.00 | 0.00 | 0.00 | 39 | 1014.5 |
| 20260905184130 | 83 | 205 | 0.0 | 0.0 | 0.00 | 0.00 | 0.00 | 37 | 1014.6 |
| 20260905183627 | 83 | 205 | 0.0 | 0.0 | 0.00 | 0.00 | 0.00 | 40 | 1014.6 |
| 20260905183128 | 83 | 205 | 0.0 | 0.0 | 0.00 | 0.00 | 0.00 | 37 | 1014.7 |
| 20260905182626 | 83 | 205 | 0.0 | 0.0 | 0.00 | 0.00 | 0.00 | 38 | 1014.7 |
| 20260905182124 | 83 | 205 | 0.0 | 0.0 | 0.00 | 0.00 | 0.00 | 40 | 1014.8 |
| 20260905181624 | 82 | 205 | 0.0 | 0.0 | 0.00 | 0.00 | 0.00 | 41 | 1014.9 |
| 20260905181416 | 82 | 205 | 0.0 | 0.0 | 0.00 | 0.00 | 0.00 | 42 | 1014.9 |
| 20260905180622 | 82 | 205 | 0.0 | 0.0 | 0.00 | 0.00 | 0.00 | 41 | 1014.9 |
| 20260905180407 | 81 | 205 | 0.0 | 0.0 | 0.00 | 0.00 | 0.00 | 42 | 1014.9 |
| 20260905175616 | 81 | 205 | 0.0 | 0.0 | 0.00 | 0.00 | 0.00 | 42 | 1015.0 |
| 20260905175201 | 80 | 205 | 0.0 | 2.0 | 0.00 | 0.00 | 0.00 | 43 | 1014.9 |
| 20260905175145 | 81 | 205 | 0.0 | 0.0 | 0.00 | 0.00 | 0.00 | 41 | 1015.0 |
| 20260905174114 | 80 | 205 | 0.0 | 2.0 | 0.00 | 0.00 | 0.00 | 44 | 1014.9 |
| 20260905173609 | 80 | 296 | 0.0 | 0.0 | 0.00 | 0.00 | 0.00 | 43 | 1014.8 |
| 20260905173104 | 80 | 296 | 0.0 | 0.0 | 0.00 | 0.00 | 0.00 | 44 | 1014.9 |
| 20260905172606 | 79 | 296 | 0.0 | 0.0 | 0.00 | 0.00 | 0.00 | 44 | 1015.0 |
| 20260905172107 | 79 | 296 | 0.0 | 0.0 | 0.00 | 0.00 | 0.00 | 45 | 1014.9 |
| 20260905171603 | 78 | 296 | 0.0 | 0.0 | 0.00 | 0.00 | 0.00 | 45 | 1014.9 |
| 20260905171102 | 78 | 296 | 0.0 | 0.0 | 0.00 | 0.00 | 0.00 | 46 | 1014.9 |
| 20260905170603 | 78 | 296 | 0.0 | 0.0 | 0.00 | 0.00 | 0.00 | 45 | 1014.8 |
| 20260905170104 | 77 | 296 | 0.0 | 0.0 | 0.00 | 0.00 | 0.00 | 45 | 1014.7 |
| 20260905165602 | 77 | 296 | 0.0 | 0.0 | 0.00 | 0.00 | 0.00 | 47 | 1014.9 |
| 20260905165103 | 76 | 296 | 0.0 | 0.0 | 0.00 | 0.00 | 0.00 | 47 | 1014.7 |
| 20260905164603 | 76 | 296 | 0.0 | 0.0 | 0.00 | 0.00 | 0.00 | 47 | 1014.7 |
| 20260905164104 | 75 | 296 | 0.0 | 0.0 | 0.00 | 0.00 | 0.00 | 48 | 1014.8 |
| 20260905163851 | 74 | 296 | 0.0 | 0.0 | 0.00 | 0.00 | 0.00 | 49 | 1014.8 |
| 20260905163104 | 74 | 296 | 0.0 | 0.0 | 0.00 | 0.00 | 0.00 | 49 | 1014.8 |
| 20260905162603 | 74 | 296 | 0.0 | 0.0 | 0.00 | 0.00 | 0.00 | 50 | 1014.7 |
| 20260905162351 | 73 | 296 | 0.0 | 0.0 | 0.00 | 0.00 | 0.00 | 51 | 1014.6 |
| 20260905161603 | 72 | 296 | 0.0 | 0.0 | 0.00 | 0.00 | 0.00 | 51 | 1014.6 |
| 20260905161104 | 72 | 296 | 0.0 | 0.0 | 0.00 | 0.00 | 0.00 | 52 | 1014.5 |
| 20260905160603 | 71 | 296 | 0.0 | 0.0 | 0.00 | 0.00 | 0.00 | 52 | 1014.5 |
| 20260905155605 | 70 | 296 | 0.0 | 0.0 | 0.00 | 0.00 | 0.00 | 54 | 1014.6 |
| 20260905155103 | 70 | 296 | 0.0 | 0.0 | 0.00 | 0.00 | 0.00 | 55 | 1014.6 |
| 20260905154847 | 69 | 296 | 0.0 | 0.0 | 0.00 | 0.00 | 0.00 | 55 | 1014.5 |
| 20260905154103 | 68 | 296 | 0.0 | 0.0 | 0.00 | 0.00 | 0.00 | 56 | 1014.5 |
| 20260905153853 | 67 | 296 | 0.0 | 0.0 | 0.00 | 0.00 | 0.00 | 58 | 1014.5 |
| 20260905153102 | 67 | 296 | 0.0 | 0.0 | 0.00 | 0.00 | 0.00 | 59 | 1014.5 |
| 20260905152604 | 65 | 296 | 0.0 | 0.0 | 0.00 | 0.00 | 0.00 | 61 | 1014.4 |
| 20260905152105 | 64 | 296 | 0.0 | 0.0 | 0.00 | 0.00 | 0.00 | 64 | 1014.3 |
| 20260905151603 | 63 | 296 | 0.0 | 0.0 | 0.00 | 0.00 | 0.00 | 65 | 1014.2 |
| 20260905151104 | 62 | 296 | 0.0 | 0.0 | 0.00 | 0.00 | 0.00 | 67 | 1014.1 |
| 20260905150849 | 62 | 296 | 0.0 | 0.0 | 0.00 | 0.00 | 0.00 | 68 | 1014.1 |
| 20260905145604 | 61 | 296 | 0.0 | 0.0 | 0.00 | 0.00 | 0.00 | 68 | 1014.0 |
| 20260905145104 | 61 | 296 | 0.0 | 0.0 | 0.00 | 0.00 | 0.00 | 68 | 1014.2 |
| 20260905144602 | 61 | 296 | 0.0 | 0.0 | 0.00 | 0.00 | 0.00 | 68 | 1014.3 |
| 20260905144102 | 61 | 296 | 0.0 | 0.0 | 0.00 | 0.00 | 0.00 | 68 | 1014.2 |
| 20260905143603 | 60 | 296 | 0.0 | 0.0 | 0.00 | 0.00 | 0.00 | 69 | 1014.2 |
| 20260905143104 | 60 | 296 | 0.0 | 0.0 | 0.00 | 0.00 | 0.00 | 69 | 1014.1 |
| 20260905142604 | 60 | 296 | 0.0 | 0.0 | 0.00 | 0.00 | 0.00 | 70 | 1013.8 |
| 20260905142101 | 60 | 296 | 0.0 | 0.0 | 0.00 | 0.00 | 0.00 | 70 | 1013.7 |
| 20260905141559 | 60 | 296 | 0.0 | 0.0 | 0.00 | 0.00 | 0.00 | 70 | 1013.7 |
| 20260905141058 | 60 | 296 | 0.0 | 0.0 | 0.00 | 0.00 | 0.00 | 70 | 1013.6 |
| 20260905140555 | 60 | 296 | 0.0 | 0.0 | 0.00 | 0.00 | 0.00 | 70 | 1013.7 |
| 20260905140055 | 60 | 296 | 0.0 | 0.0 | 0.00 | 0.00 | 0.00 | 71 | 1013.7 |
| 20260905135556 | 60 | 296 | 0.0 | 0.0 | 0.00 | 0.00 | 0.00 | 71 | 1013.5 |
| 20260905135046 | 60 | 296 | 0.0 | 0.0 | 0.00 | 0.00 | 0.00 | 71 | 1013.4 |
| 20260905134540 | 60 | 296 | 0.0 | 0.0 | 0.00 | 0.00 | 0.00 | 70 | 1013.4 |
| 20260905134039 | 60 | 296 | 0.0 | 0.0 | 0.00 | 0.00 | 0.00 | 71 | 1013.3 |
| 20260905133535 | 60 | 296 | 0.0 | 0.0 | 0.00 | 0.00 | 0.00 | 70 | 1013.3 |
| 20260905133031 | 60 | 296 | 0.0 | 0.0 | 0.00 | 0.00 | 0.00 | 70 | 1013.2 |
| 20260905132531 | 60 | 296 | 0.0 | 0.0 | 0.00 | 0.00 | 0.00 | 70 | 1013.3 |
| 20260905132031 | 60 | 296 | 0.0 | 0.0 | 0.00 | 0.00 | 0.00 | 70 | 1013.2 |
| 20260905131812 | 60 | 296 | 0.0 | 0.0 | 0.00 | 0.00 | 0.00 | 70 | 1013.2 |
| 20260905131032 | 60 | 296 | 0.0 | 0.0 | 0.00 | 0.00 | 0.00 | 70 | 1013.1 |
| 20260905130533 | 60 | 296 | 0.0 | 0.0 | 0.00 | 0.00 | 0.00 | 70 | 1013.1 |
| 20260905130032 | 60 | 296 | 0.0 | 0.0 | 0.00 | 0.00 | 0.00 | 70 | 1013.0 |
| 20260905125534 | 61 | 296 | 0.0 | 0.0 | 0.00 | 0.00 | 0.00 | 69 | 1013.1 |
| 20260905125034 | 61 | 296 | 0.0 | 0.0 | 0.00 | 0.00 | 0.00 | 69 | 1013.2 |
| 20260905124824 | 61 | 296 | 0.0 | 0.0 | 0.00 | 0.00 | 0.00 | 69 | 1013.1 |
| 20260905124032 | 61 | 296 | 0.0 | 0.0 | 0.00 | 0.00 | 0.00 | 69 | 1013.1 |
| 20260905123532 | 61 | 296 | 0.0 | 0.0 | 0.00 | 0.00 | 0.00 | 68 | 1013.2 |
| 20260905123315 | 61 | 296 | 0.0 | 0.0 | 0.00 | 0.00 | 0.00 | 69 | 1013.1 |
| 20260905122526 | 61 | 296 | 0.0 | 0.0 | 0.00 | 0.00 | 0.00 | 68 | 1013.1 |
| 20260905122012 | 62 | 296 | 0.0 | 0.0 | 0.00 | 0.00 | 0.00 | 68 | 1013.1 |
| 20260905121512 | 62 | 296 | 0.0 | 0.0 | 0.00 | 0.00 | 0.00 | 68 | 1013.0 |
| 20260905121007 | 62 | 296 | 0.0 | 0.0 | 0.00 | 0.00 | 0.00 | 67 | 1013.0 |
| 20260905120507 | 62 | 296 | 0.0 | 0.0 | 0.00 | 0.00 | 0.00 | 67 | 1013.1 |
| 20260905120006 | 62 | 296 | 0.0 | 0.0 | 0.00 | 0.00 | 0.00 | 67 | 1013.1 |
| 20260905115507 | 62 | 296 | 0.0 | 0.0 | 0.00 | 0.00 | 0.00 | 67 | 1013.1 |
| 20260905115005 | 62 | 296 | 0.0 | 0.0 | 0.00 | 0.00 | 0.00 | 67 | 1013.1 |
| 20260905114503 | 62 | 296 | 0.0 | 0.0 | 0.00 | 0.00 | 0.00 | 66 | 1013.1 |
| 20260905114252 | 62 | 296 | 0.0 | 0.0 | 0.00 | 0.00 | 0.00 | 66 | 1013.1 |
| 20260905113750 | 62 | 296 | 0.0 | 0.0 | 0.00 | 0.00 | 0.00 | 66 | 1013.1 |
| 20260905113005 | 63 | 296 | 0.0 | 4.0 | 0.00 | 0.00 | 0.00 | 66 | 1013.1 |
| 20260905112504 | 63 | 296 | 0.0 | 4.0 | 0.00 | 0.00 | 0.00 | 66 | 1013.0 |
| 20260905112005 | 63 | 313 | 0.0 | 0.0 | 0.00 | 0.00 | 0.00 | 66 | 1013.1 |
| 20260905111506 | 63 | 313 | 0.0 | 0.0 | 0.00 | 0.00 | 0.00 | 65 | 1013.1 |
| 20260905111002 | 63 | 313 | 0.0 | 0.0 | 0.00 | 0.00 | 0.00 | 65 | 1013.1 |
| 20260905110504 | 63 | 313 | 0.0 | 0.0 | 0.00 | 0.00 | 0.00 | 65 | 1013.0 |
| 20260905110006 | 63 | 313 | 0.0 | 0.0 | 0.00 | 0.00 | 0.00 | 64 | 1013.1 |
| 20260905105504 | 63 | 313 | 0.0 | 3.0 | 0.00 | 0.00 | 0.00 | 64 | 1013.1 |
| 20260905105001 | 63 | 313 | 0.0 | 3.0 | 0.00 | 0.00 | 0.00 | 64 | 1013.1 |
| 20260905104505 | 64 | 307 | 0.0 | 2.0 | 0.00 | 0.00 | 0.00 | 63 | 1013.0 |
| 20260905104248 | 64 | 296 | 0.0 | 2.0 | 0.00 | 0.00 | 0.00 | 63 | 1013.0 |
| 20260905103504 | 64 | 296 | 0.0 | 2.0 | 0.00 | 0.00 | 0.00 | 63 | 1013.0 |
| 20260905103004 | 64 | 304 | 0.0 | 0.0 | 0.00 | 0.00 | 0.00 | 62 | 1013.0 |
| 20260905102503 | 64 | 304 | 0.0 | 0.0 | 0.00 | 0.00 | 0.00 | 62 | 1013.1 |
| 20260905102004 | 64 | 304 | 0.0 | 0.0 | 0.00 | 0.00 | 0.00 | 62 | 1013.2 |
| 20260905101505 | 64 | 304 | 0.0 | 0.0 | 0.00 | 0.00 | 0.00 | 61 | 1013.2 |
| 20260905101004 | 64 | 304 | 0.0 | 0.0 | 0.00 | 0.00 | 0.00 | 61 | 1013.1 |
| 20260905100503 | 64 | 304 | 0.0 | 0.0 | 0.00 | 0.00 | 0.00 | 60 | 1013.3 |
| 20260905100004 | 65 | 304 | 0.0 | 0.0 | 0.00 | 0.00 | 0.00 | 60 | 1013.2 |
| 20260905095504 | 65 | 304 | 0.0 | 0.0 | 0.00 | 0.00 | 0.00 | 60 | 1013.3 |
| 20260905095005 | 65 | 304 | 0.0 | 0.0 | 0.00 | 0.00 | 0.00 | 59 | 1013.3 |
| 20260905094503 | 65 | 304 | 0.0 | 0.0 | 0.00 | 0.00 | 0.00 | 58 | 1013.3 |
| 20260905094005 | 65 | 304 | 0.0 | 0.0 | 0.00 | 0.00 | 0.00 | 58 | 1013.2 |
| 20260905093751 | 65 | 304 | 0.0 | 0.0 | 0.00 | 0.00 | 0.00 | 57 | 1013.3 |
| 20260905093004 | 65 | 304 | 0.0 | 0.0 | 0.00 | 0.00 | 0.00 | 57 | 1013.2 |
| 20260905092503 | 66 | 304 | 0.0 | 0.0 | 0.00 | 0.00 | 0.00 | 56 | 1013.2 |
| 20260905092002 | 66 | 304 | 0.0 | 0.0 | 0.00 | 0.00 | 0.00 | 56 | 1013.3 |
| 20260905091506 | 66 | 304 | 0.0 | 0.0 | 0.00 | 0.00 | 0.00 | 55 | 1013.2 |
| 20260905091004 | 66 | 304 | 0.0 | 4.0 | 0.00 | 0.00 | 0.00 | 54 | 1013.4 |
| 20260905090503 | 66 | 304 | 0.0 | 4.0 | 0.00 | 0.00 | 0.00 | 54 | 1013.4 |
| 20260905090004 | 66 | 286 | 0.0 | 1.0 | 0.00 | 0.00 | 0.00 | 53 | 1013.5 |
| 20260905085504 | 67 | 301 | 0.0 | 4.0 | 0.00 | 0.00 | 0.00 | 53 | 1013.4 |
| 20260905085251 | 67 | 284 | 0.0 | 5.0 | 0.00 | 0.00 | 0.00 | 52 | 1013.4 |
| 20260905084503 | 67 | 303 | 0.0 | 5.0 | 0.00 | 0.00 | 0.00 | 52 | 1013.4 |
| 20260905084242 | 67 | 282 | 0.0 | 0.0 | 0.00 | 0.00 | 0.00 | 51 | 1013.5 |
| 20260905083508 | 67 | 282 | 0.0 | 0.0 | 0.00 | 0.00 | 0.00 | 51 | 1013.4 |
| 20260905083003 | 68 | 282 | 0.0 | 0.0 | 0.00 | 0.00 | 0.00 | 50 | 1013.5 |
| 20260905082504 | 68 | 282 | 0.0 | 3.0 | 0.00 | 0.00 | 0.00 | 50 | 1013.5 |
| 20260905082245 | 68 | 282 | 0.0 | 9.0 | 0.00 | 0.00 | 0.00 | 50 | 1013.4 |
| 20260905081502 | 68 | 316 | 2.0 | 9.0 | 0.00 | 0.00 | 0.00 | 49 | 1013.4 |
| 20260905081008 | 68 | 320 | 0.0 | 1.0 | 0.00 | 0.00 | 0.00 | 49 | 1013.4 |
| 20260905080506 | 68 | 306 | 0.0 | 0.0 | 0.00 | 0.00 | 0.00 | 49 | 1013.4 |
| 20260905080252 | 68 | 306 | 0.0 | 1.0 | 0.00 | 0.00 | 0.00 | 49 | 1013.4 |
| 20260905075504 | 69 | 306 | 0.0 | 1.0 | 0.00 | 0.00 | 0.00 | 49 | 1013.4 |
| 20260905075252 | 69 | 291 | 0.0 | 0.0 | 0.00 | 0.00 | 0.00 | 49 | 1013.3 |
| 20260905074503 | 69 | 291 | 0.0 | 4.0 | 0.00 | 0.00 | 0.00 | 49 | 1013.4 |
| 20260905074001 | 69 | 291 | 1.0 | 4.0 | 0.00 | 0.00 | 0.00 | 49 | 1013.4 |
| 20260905073749 | 69 | 301 | 0.0 | 5.0 | 0.00 | 0.00 | 0.00 | 48 | 1013.4 |
| 20260905073004 | 69 | 298 | 0.0 | 5.0 | 0.00 | 0.00 | 0.00 | 48 | 1013.4 |
| 20260905072504 | 69 | 306 | 0.0 | 1.0 | 0.00 | 0.00 | 0.00 | 48 | 1013.3 |
| 20260905072004 | 69 | 300 | 0.0 | 0.0 | 0.00 | 0.00 | 0.00 | 48 | 1013.3 |
| 20260905071505 | 69 | 300 | 0.0 | 4.0 | 0.00 | 0.00 | 0.00 | 48 | 1013.2 |
| 20260905071254 | 70 | 300 | 0.0 | 4.0 | 0.00 | 0.00 | 0.00 | 48 | 1013.3 |
| 20260905070503 | 70 | 290 | 0.0 | 1.0 | 0.00 | 0.00 | 0.00 | 48 | 1013.3 |
| 20260905070002 | 70 | 290 | 0.0 | 4.0 | 0.00 | 0.00 | 0.00 | 49 | 1013.2 |
| 20260905065504 | 70 | 302 | 0.0 | 4.0 | 0.00 | 0.00 | 0.00 | 48 | 1013.1 |
| 20260905065327 | 71 | 310 | 0.0 | 2.0 | 0.00 | 0.00 | 0.00 | 49 | 1012.9 |
| 20260905065024 | 70 | 314 | 0.0 | 2.0 | 0.00 | 0.00 | 0.00 | 48 | 1013.0 |
| 20260905064004 | 71 | 284 | 0.0 | 2.0 | 0.00 | 0.00 | 0.00 | 48 | 1012.9 |
| 20260905063502 | 71 | 304 | 0.0 | 1.0 | 0.00 | 0.00 | 0.00 | 49 | 1012.9 |
| 20260905063003 | 71 | 309 | 0.0 | 7.0 | 0.00 | 0.00 | 0.00 | 48 | 1012.9 |
| 20260905062502 | 71 | 295 | 1.0 | 7.0 | 0.00 | 0.00 | 0.00 | 48 | 1012.9 |
| 20260905062004 | 71 | 292 | 0.0 | 4.0 | 0.00 | 0.00 | 0.00 | 48 | 1012.9 |
| 20260905061502 | 72 | 300 | 0.0 | 0.0 | 0.00 | 0.00 | 0.00 | 48 | 1012.9 |
| 20260905061044 | 72 | 294 | 0.0 | 0.0 | 0.00 | 0.00 | 0.00 | 47 | 1012.9 |
| 20260905061029 | 72 | 294 | 0.0 | 0.0 | 0.00 | 0.00 | 0.00 | 47 | 1013.0 |
| 20260905060003 | 72 | 294 | 0.0 | 0.0 | 0.00 | 0.00 | 0.00 | 47 | 1012.8 |
| 20260905055504 | 72 | 294 | 0.0 | 0.0 | 0.00 | 0.00 | 0.00 | 47 | 1012.7 |
| 20260905055004 | 73 | 294 | 0.0 | 0.0 | 0.00 | 0.00 | 0.00 | 46 | 1012.8 |
| 20260905054505 | 73 | 294 | 0.0 | 0.0 | 0.00 | 0.00 | 0.00 | 46 | 1012.8 |
| 20260905054005 | 73 | 294 | 0.0 | 0.0 | 0.00 | 0.00 | 0.00 | 46 | 1012.8 |
| 20260905053504 | 73 | 294 | 0.0 | 4.0 | 0.00 | 0.00 | 0.00 | 46 | 1012.8 |
| 20260905053002 | 73 | 294 | 0.0 | 4.0 | 0.00 | 0.00 | 0.00 | 45 | 1012.8 |
| 20260905052504 | 73 | 301 | 0.0 | 4.0 | 0.00 | 0.00 | 0.00 | 45 | 1012.9 |
| 20260905052251 | 73 | 290 | 0.0 | 4.0 | 0.00 | 0.00 | 0.00 | 45 | 1012.8 |
| 20260905051749 | 73 | 300 | 0.0 | 0.0 | 0.00 | 0.00 | 0.00 | 45 | 1012.9 |
| 20260905051005 | 73 | 300 | 0.0 | 0.0 | 0.00 | 0.00 | 0.00 | 45 | 1012.9 |
| 20260905050502 | 73 | 315 | 0.0 | 2.0 | 0.00 | 0.00 | 0.00 | 45 | 1013.0 |
| 20260905050005 | 73 | 315 | 0.0 | 2.0 | 0.00 | 0.00 | 0.00 | 45 | 1012.9 |
| 20260905045507 | 74 | 295 | 0.0 | 0.0 | 0.00 | 0.00 | 0.00 | 45 | 1012.8 |
| 20260905045002 | 74 | 295 | 0.0 | 5.0 | 0.00 | 0.00 | 0.00 | 45 | 1012.8 |
| 20260905044507 | 74 | 295 | 0.0 | 5.0 | 0.00 | 0.00 | 0.00 | 45 | 1012.8 |
| 20260905044006 | 74 | 319 | 0.0 | 0.0 | 0.00 | 0.00 | 0.00 | 45 | 1012.6 |
| 20260905043504 | 74 | 319 | 0.0 | 0.0 | 0.00 | 0.00 | 0.00 | 45 | 1012.5 |
| 20260905043002 | 74 | 319 | 0.0 | 0.0 | 0.00 | 0.00 | 0.00 | 45 | 1012.6 |
| 20260905042504 | 75 | 319 | 0.0 | 0.0 | 0.00 | 0.00 | 0.00 | 44 | 1012.5 |
| 20260905042004 | 75 | 319 | 0.0 | 0.0 | 0.00 | 0.00 | 0.00 | 44 | 1012.3 |
| 20260905041504 | 75 | 319 | 0.0 | 0.0 | 0.00 | 0.00 | 0.00 | 44 | 1012.3 |
| 20260905041001 | 75 | 319 | 0.0 | 0.0 | 0.00 | 0.00 | 0.00 | 43 | 1012.3 |
| 20260905040503 | 75 | 319 | 0.0 | 0.0 | 0.00 | 0.00 | 0.00 | 43 | 1012.2 |
| 20260905040002 | 76 | 319 | 0.0 | 0.0 | 0.00 | 0.00 | 0.00 | 42 | 1012.1 |
| 20260905035503 | 76 | 319 | 0.0 | 0.0 | 0.00 | 0.00 | 0.00 | 42 | 1012.0 |
| 20260905035005 | 76 | 319 | 0.0 | 0.0 | 0.00 | 0.00 | 0.00 | 42 | 1012.1 |
| 20260905034750 | 76 | 319 | 0.0 | 0.0 | 0.00 | 0.00 | 0.00 | 42 | 1012.1 |
| 20260905034005 | 76 | 319 | 0.0 | 0.0 | 0.00 | 0.00 | 0.00 | 41 | 1012.1 |
| 20260905033504 | 77 | 319 | 0.0 | 0.0 | 0.00 | 0.00 | 0.00 | 42 | 1012.0 |
| 20260905033004 | 77 | 319 | 0.0 | 0.0 | 0.00 | 0.00 | 0.00 | 42 | 1012.0 |
| 20260905032503 | 77 | 319 | 0.0 | 0.0 | 0.00 | 0.00 | 0.00 | 42 | 1012.0 |
| 20260905032003 | 77 | 319 | 0.0 | 0.0 | 0.00 | 0.00 | 0.00 | 42 | 1012.0 |
| 20260905031505 | 77 | 319 | 0.0 | 0.0 | 0.00 | 0.00 | 0.00 | 42 | 1011.8 |
| 20260905031004 | 78 | 319 | 0.0 | 9.0 | 0.00 | 0.00 | 0.00 | 42 | 1011.8 |
| 20260905030750 | 78 | 319 | 1.0 | 9.0 | 0.00 | 0.00 | 0.00 | 42 | 1011.7 |
| 20260905030006 | 78 | 302 | 0.0 | 1.0 | 0.00 | 0.00 | 0.00 | 41 | 1011.6 |
| 20260905025502 | 78 | 302 | 0.0 | 1.0 | 0.00 | 0.00 | 0.00 | 41 | 1011.6 |
| 20260905025006 | 78 | 296 | 0.0 | 0.0 | 0.00 | 0.00 | 0.00 | 41 | 1011.5 |
| 20260905024505 | 79 | 296 | 0.0 | 0.0 | 0.00 | 0.00 | 0.00 | 41 | 1011.6 |
| 20260905024004 | 79 | 296 | 0.0 | 1.0 | 0.00 | 0.00 | 0.00 | 40 | 1011.6 |
| 20260905023502 | 79 | 296 | 0.0 | 3.0 | 0.00 | 0.00 | 0.00 | 40 | 1011.5 |
| 20260905023003 | 79 | 312 | 0.0 | 4.0 | 0.00 | 0.00 | 0.00 | 40 | 1011.6 |
| 20260905022503 | 80 | 289 | 0.0 | 7.0 | 0.00 | 0.00 | 0.00 | 40 | 1011.5 |
| 20260905022004 | 80 | 313 | 1.0 | 7.0 | 0.00 | 0.00 | 0.00 | 39 | 1011.5 |
| 20260905021505 | 80 | 294 | 0.0 | 5.0 | 0.00 | 0.00 | 0.00 | 40 | 1011.5 |
| 20260905021003 | 80 | 294 | 0.0 | 5.0 | 0.00 | 0.00 | 0.00 | 40 | 1011.5 |
| 20260905020751 | 81 | 263 | 0.0 | 1.0 | 0.00 | 0.00 | 0.00 | 40 | 1011.4 |
| 20260905020002 | 81 | 263 | 0.0 | 5.0 | 0.00 | 0.00 | 0.00 | 39 | 1011.5 |
| 20260905015504 | 81 | 303 | 1.0 | 5.0 | 0.00 | 0.00 | 0.00 | 39 | 1011.5 |
| 20260905015249 | 82 | 306 | 0.0 | 8.0 | 0.00 | 0.00 | 0.00 | 39 | 1011.5 |
| 20260905014506 | 82 | 289 | 0.0 | 8.0 | 0.00 | 0.00 | 0.00 | 39 | 1011.4 |
| 20260905014003 | 82 | 290 | 0.0 | 4.0 | 0.00 | 0.00 | 0.00 | 39 | 1011.5 |
| 20260905013504 | 83 | 290 | 0.0 | 1.0 | 0.00 | 0.00 | 0.00 | 39 | 1011.5 |
| 20260905013006 | 83 | 311 | 0.0 | 1.0 | 0.00 | 0.00 | 0.00 | 39 | 1011.5 |
| 20260905012502 | 83 | 295 | 0.0 | 8.0 | 0.00 | 0.00 | 0.00 | 39 | 1011.5 |
| 20260905012004 | 83 | 295 | 0.0 | 8.0 | 0.00 | 0.00 | 0.00 | 39 | 1011.6 |
| 20260905011504 | 84 | 284 | 0.0 | 8.0 | 0.00 | 0.00 | 0.00 | 39 | 1011.5 |
| 20260905011005 | 84 | 306 | 0.0 | 5.0 | 0.00 | 0.00 | 0.00 | 39 | 1011.5 |
| 20260905010506 | 84 | 306 | 0.0 | 5.0 | 0.00 | 0.00 | 0.00 | 39 | 1011.7 |
| 20260905010004 | 84 | 286 | 0.0 | 3.0 | 0.00 | 0.00 | 0.00 | 38 | 1011.6 |
| 20260905005503 | 84 | 302 | 0.0 | 2.0 | 0.00 | 0.00 | 0.00 | 39 | 1011.6 |
| 20260905005005 | 84 | 308 | 0.0 | 4.0 | 0.00 | 0.00 | 0.00 | 38 | 1011.5 |
| 20260905004751 | 85 | 281 | 0.0 | 4.0 | 0.00 | 0.00 | 0.00 | 38 | 1011.5 |
| 20260905004003 | 85 | 251 | 0.0 | 2.0 | 0.00 | 0.00 | 0.00 | 39 | 1011.5 |
| 20260905003503 | 85 | 302 | 0.0 | 0.0 | 0.00 | 0.00 | 0.00 | 39 | 1011.4 |
| 20260905002958 | 85 | 302 | 0.0 | 0.0 | 0.00 | 0.00 | 0.00 | 38 | 1011.4 |
| 20260905002455 | 85 | 302 | 0.0 | 3.0 | 0.00 | 0.00 | 0.00 | 38 | 1011.3 |
| 20260905002241 | 85 | 302 | 0.0 | 8.0 | 0.00 | 0.00 | 0.00 | 39 | 1011.5 |
| 20260905001454 | 85 | 248 | 0.0 | 8.0 | 0.00 | 0.00 | 0.00 | 38 | 1011.5 |
| 20260905000952 | 86 | 300 | 0.0 | 0.0 | 0.00 | 0.00 | 0.00 | 39 | 1011.5 |
| 20260905000446 | 86 | 300 | 0.0 | 0.0 | 0.00 | 0.00 | 0.00 | 38 | 1011.5 |
| 20260904235943 | 86 | 300 | 0.0 | 1.0 | 0.00 | 0.00 | 0.00 | 38 | 1011.5 |
| 20260904235434 | 86 | 300 | 0.0 | 1.0 | 0.00 | 0.00 | 0.00 | 37 | 1011.6 |
| 20260904235221 | 86 | 259 | 0.0 | 1.0 | 0.00 | 0.00 | 0.00 | 37 | 1011.6 |
| 20260904234431 | 86 | 244 | 0.0 | 2.0 | 0.00 | 0.00 | 0.00 | 38 | 1011.6 |
| 20260904233932 | 86 | 244 | 0.0 | 2.0 | 0.00 | 0.00 | 0.00 | 38 | 1011.6 |
| 20260904233431 | 86 | 301 | 0.0 | 0.0 | 0.00 | 0.00 | 0.00 | 39 | 1011.7 |
| 20260904232932 | 87 | 301 | 0.0 | 10.0 | 0.00 | 0.00 | 0.00 | 37 | 1011.8 |
| 20260904232431 | 87 | 301 | 0.0 | 10.0 | 0.00 | 0.00 | 0.00 | 37 | 1011.8 |
| 20260904231931 | 87 | 293 | 0.0 | 4.0 | 0.00 | 0.00 | 0.00 | 38 | 1011.8 |
| 20260904231431 | 87 | 293 | 0.0 | 8.0 | 0.00 | 0.00 | 0.00 | 38 | 1011.9 |
| 20260904230931 | 87 | 302 | 0.0 | 8.0 | 0.00 | 0.00 | 0.00 | 38 | 1011.8 |
| 20260904230433 | 86 | 247 | 0.0 | 0.0 | 0.00 | 0.00 | 0.00 | 39 | 1011.9 |
| 20260904225932 | 86 | 247 | 0.0 | 0.0 | 0.00 | 0.00 | 0.00 | 39 | 1012.1 |
| 20260904225433 | 87 | 247 | 0.0 | 0.0 | 0.00 | 0.00 | 0.00 | 39 | 1012.1 |
| 20260904224931 | 87 | 247 | 0.0 | 0.0 | 0.00 | 0.00 | 0.00 | 38 | 1012.2 |
| 20260904224725 | 87 | 247 | 0.0 | 0.0 | 0.00 | 0.00 | 0.00 | 39 | 1012.2 |
| 20260904223931 | 87 | 247 | 0.0 | 0.0 | 0.00 | 0.00 | 0.00 | 39 | 1012.3 |
| 20260904223726 | 87 | 247 | 0.0 | 7.0 | 0.00 | 0.00 | 0.00 | 38 | 1012.4 |
| 20260904222932 | 87 | 247 | 0.0 | 7.0 | 0.00 | 0.00 | 0.00 | 39 | 1012.4 |
| 20260904222431 | 87 | 284 | 0.0 | 8.0 | 0.00 | 0.00 | 0.00 | 38 | 1012.5 |
| 20260904221931 | 87 | 262 | 0.0 | 8.0 | 0.00 | 0.00 | 0.00 | 39 | 1012.5 |
| 20260904221604 | 86 | 236 | 0.0 | 2.0 | 0.00 | 0.00 | 0.00 | 41 | 1012.7 |
| 20260904221557 | 86 | 242 | 0.0 | 0.0 | 0.00 | 0.00 | 0.00 | 40 | 1012.7 |
| 20260904221531 | 87 | 240 | 0.0 | 4.0 | 0.00 | 0.00 | 0.00 | 40 | 1012.5 |
| 20260904215933 | 86 | 242 | 0.0 | 0.0 | 0.00 | 0.00 | 0.00 | 40 | 1012.7 |
| 20260904215720 | 87 | 242 | 0.0 | 1.0 | 0.00 | 0.00 | 0.00 | 39 | 1012.8 |
| 20260904214933 | 88 | 242 | 0.0 | 8.0 | 0.00 | 0.00 | 0.00 | 39 | 1012.9 |
| 20260904214433 | 88 | 270 | 0.0 | 8.0 | 0.00 | 0.00 | 0.00 | 39 | 1013.0 |
| 20260904213933 | 88 | 232 | 0.0 | 2.0 | 0.00 | 0.00 | 0.00 | 39 | 1013.0 |
| 20260904213432 | 88 | 232 | 0.0 | 2.0 | 0.00 | 0.00 | 0.00 | 39 | 1013.0 |
| 20260904212931 | 88 | 267 | 0.0 | 9.0 | 0.00 | 0.00 | 0.00 | 39 | 1013.1 |
| 20260904212432 | 88 | 269 | 1.0 | 9.0 | 0.00 | 0.00 | 0.00 | 39 | 1013.0 |
| 20260904211931 | 87 | 245 | 0.0 | 1.0 | 0.00 | 0.00 | 0.00 | 41 | 1013.1 |
| 20260904211520 | 86 | 223 | 0.0 | 0.0 | 0.00 | 0.00 | 0.00 | 42 | 1013.2 |
| 20260904211456 | 87 | 223 | 0.0 | 0.0 | 0.00 | 0.00 | 0.00 | 41 | 1013.2 |
| 20260904210433 | 86 | 223 | 0.0 | 0.0 | 0.00 | 0.00 | 0.00 | 40 | 1013.2 |
| 20260904210217 | 86 | 223 | 0.0 | 3.0 | 0.00 | 0.00 | 0.00 | 42 | 1013.2 |
| 20260904205713 | 86 | 246 | 0.0 | 3.0 | 0.00 | 0.00 | 0.00 | 42 | 1013.3 |
| 20260904204927 | 86 | 240 | 0.0 | 0.0 | 0.00 | 0.00 | 0.00 | 41 | 1013.4 |
| 20260904204718 | 86 | 240 | 0.0 | 4.0 | 0.00 | 0.00 | 0.00 | 43 | 1013.4 |
| 20260904203923 | 85 | 240 | 0.0 | 4.0 | 0.00 | 0.00 | 0.00 | 43 | 1013.4 |
| 20260904203420 | 85 | 234 | 0.0 | 1.0 | 0.00 | 0.00 | 0.00 | 44 | 1013.4 |
| 20260904203218 | 85 | 234 | 0.0 | 1.0 | 0.00 | 0.00 | 0.00 | 44 | 1013.4 |
| 20260904202421 | 85 | 275 | 0.0 | 1.0 | 0.00 | 0.00 | 0.00 | 44 | 1013.5 |
| 20260904201918 | 84 | 264 | 0.0 | 0.0 | 0.00 | 0.00 | 0.00 | 45 | 1013.5 |
| 20260904201419 | 84 | 264 | 0.0 | 0.0 | 0.00 | 0.00 | 0.00 | 45 | 1013.5 |
| 20260904200918 | 85 | 264 | 0.0 | 0.0 | 0.00 | 0.00 | 0.00 | 43 | 1013.5 |
| 20260904200414 | 85 | 264 | 0.0 | 3.0 | 0.00 | 0.00 | 0.00 | 45 | 1013.6 |
| 20260904200202 | 85 | 264 | 0.0 | 3.0 | 0.00 | 0.00 | 0.00 | 45 | 1013.5 |
| 20260904195415 | 85 | 251 | 0.0 | 0.0 | 0.00 | 0.00 | 0.00 | 46 | 1013.5 |
| 20260904194911 | 84 | 251 | 0.0 | 1.0 | 0.00 | 0.00 | 0.00 | 48 | 1013.6 |
| 20260904194404 | 83 | 251 | 0.0 | 3.0 | 0.00 | 0.00 | 0.00 | 48 | 1013.7 |
| 20260904193903 | 82 | 267 | 0.0 | 3.0 | 0.00 | 0.00 | 0.00 | 49 | 1013.7 |